Weather History for Pine River, MN

Change the Weather History Date:

Saturday, October 15, 2011

  Actual Average Record
Temperature  
Mean Temperature 45 °F -  
Max Temperature 53 °F 52 °F 60 °F (2005)
Min Temperature 37 °F 33 °F 15 °F (2006)
Degree Days  
Heating Degree Days 20    
Moisture  
Dew Point 34 °F    
Average Humidity 64    
Maximum Humidity 93    
Minimum Humidity 38    
Precipitation  
Precipitation 0.00 in - - ()
Sea Level Pressure  
Sea Level Pressure 29.82 in    
Wind  
Wind Speed 8 mph (WNW)    
Max Wind Speed 17 mph    
Max Gust Speed 25 mph    
Visibility 10 miles    
Events      
Averages and records for this station are not official NWS values.
T = Trace of Precipitation, MM = Missing Value Source: NWS Daily Summary

Daily Weather History Graph

Daily Weather History Graph

Search for Another Location

Airport:

Trip Planner

Search our weather history database for the weather conditions in past years. The results will help you decide how hot, cold, wet, or windy it might be!

Date:

Astronomy

Oct. 15, 2011 Rise Set
Actual Time 7:34 AM CDT 6:30 PM CDT
Civil Twilight 7:04 AM CDT 7:01 PM CDT
Nautical Twilight 6:29 AM CDT 7:36 PM CDT
Astronomical Twilight 5:54 AM CDT 8:11 PM CDT
Moon 8:12 PM CDT (10/15) 11:15 AM CDT (10/15)
Length of Visible Light 11h 57m
Length of Day
10h 56m
Waning Gibbous, 89% of the Moon is Illuminated
Oct 15
Waning Gibbous
Oct 19
Last Quarter
Oct 26
New
Nov 2
First Quarter
Nov 10
Full

Hourly Weather History & Observations

Time (CDT) Temp. Windchill Dew Point Humidity Pressure Visibility Wind Dir Wind Speed Gust Speed Precip Events Conditions
12:12 AM 46.4 °F 42.4 °F 37.4 °F 71% 29.79 in 10.0 mi WNW 8.1 mph - N/A   Mostly Cloudy
12:33 AM 46.4 °F 41.9 °F 37.4 °F 71% 29.80 in 10.0 mi WNW 9.2 mph 16.1 mph N/A   Mostly Cloudy
12:52 AM 46.4 °F 42.4 °F 37.4 °F 71% 29.80 in 10.0 mi WNW 8.1 mph 16.1 mph N/A   Overcast
1:13 AM 46.4 °F 41.9 °F 37.4 °F 71% 29.80 in 10.0 mi NW 9.2 mph 17.3 mph N/A   Overcast
1:33 AM 46.4 °F 41.5 °F 37.4 °F 71% 29.80 in 10.0 mi NW 10.4 mph 17.3 mph N/A   Overcast
1:52 AM 46.4 °F 41.9 °F 37.4 °F 71% 29.81 in 10.0 mi WNW 9.2 mph 18.4 mph N/A   Overcast
2:13 AM 44.6 °F 40.2 °F 37.4 °F 76% 29.81 in 10.0 mi WNW 8.1 mph - N/A   Mostly Cloudy
2:33 AM 44.6 °F 40.2 °F 37.4 °F 76% 29.81 in 10.0 mi WNW 8.1 mph - N/A   Scattered Clouds
2:52 AM 44.6 °F 40.7 °F 37.4 °F 76% 29.81 in 10.0 mi WNW 6.9 mph - N/A   Clear
3:13 AM 44.6 °F 39.7 °F 37.4 °F 76% 29.81 in 10.0 mi WNW 9.2 mph - N/A   Clear
3:33 AM 42.8 °F 38.0 °F 37.4 °F 81% 29.81 in 10.0 mi WNW 8.1 mph - N/A   Clear
4:13 AM 42.8 °F 37.5 °F 37.4 °F 81% 29.82 in 10.0 mi WNW 9.2 mph - N/A   Clear
4:53 AM 42.8 °F 39.3 °F 35.6 °F 76% 29.83 in 10.0 mi WNW 5.8 mph - N/A   Scattered Clouds
5:13 AM 41.0 °F 38.0 °F 37.4 °F 87% 29.83 in 10.0 mi WNW 4.6 mph - N/A   Scattered Clouds
5:32 AM 41.0 °F 37.1 °F 35.6 °F 81% 29.83 in 10.0 mi West 5.8 mph - N/A   Clear
5:52 AM 39.2 °F 37.0 °F 35.6 °F 87% 29.83 in 10.0 mi West 3.5 mph - N/A   Clear
6:13 AM 39.2 °F 37.0 °F 35.6 °F 87% 29.83 in 10.0 mi West 3.5 mph - N/A   Clear
6:33 AM 39.2 °F 35.9 °F 35.6 °F 87% 29.83 in 10.0 mi West 4.6 mph - N/A   Clear
6:52 AM 39.2 °F 35.0 °F 35.6 °F 87% 29.84 in 10.0 mi West 5.8 mph - N/A   Clear
7:13 AM 39.2 °F 35.9 °F 35.6 °F 87% 29.83 in 10.0 mi West 4.6 mph - N/A   Clear
7:32 AM 37.4 °F 34.9 °F 35.6 °F 93% 29.83 in 10.0 mi West 3.5 mph - N/A   Clear
8:13 AM 39.2 °F 35.0 °F 35.6 °F 87% 29.83 in 10.0 mi West 5.8 mph - N/A   Scattered Clouds
8:33 AM 39.2 °F 33.0 °F 35.6 °F 87% 29.84 in 10.0 mi West 9.2 mph - N/A   Scattered Clouds
8:52 AM 39.2 °F 35.0 °F 35.6 °F 87% 29.84 in 10.0 mi West 5.8 mph - N/A   Scattered Clouds
9:32 AM 42.8 °F 37.0 °F 37.4 °F 81% 29.84 in 10.0 mi West 10.4 mph - N/A   Mostly Cloudy
9:53 AM 44.6 °F 39.2 °F 37.4 °F 76% 29.84 in 10.0 mi WNW 10.4 mph 16.1 mph N/A   Clear
10:13 AM 46.4 °F 42.4 °F 37.4 °F 71% 29.84 in 10.0 mi WNW 8.1 mph - N/A   Clear
10:32 AM 46.4 °F 41.9 °F 35.6 °F 66% 29.83 in 10.0 mi West 9.2 mph 16.1 mph N/A   Scattered Clouds
10:53 AM 48.2 °F - 35.6 °F 62% 29.83 in 10.0 mi West 10.4 mph 18.4 mph N/A   Scattered Clouds
11:11 AM 48.2 °F - 33.8 °F 58% 29.84 in 10.0 mi West 10.4 mph 18.4 mph N/A   Scattered Clouds
11:32 AM 48.2 °F - 33.8 °F 58% 29.83 in 10.0 mi West 13.8 mph 25.3 mph N/A   Scattered Clouds
11:53 AM 48.2 °F - 33.8 °F 58% 29.83 in 10.0 mi West 10.4 mph 19.6 mph N/A   Scattered Clouds
12:32 PM 51.8 °F - 32.0 °F 47% 29.82 in 10.0 mi WNW 16.1 mph 25.3 mph N/A   Scattered Clouds
12:53 PM 51.8 °F - 32.0 °F 47% 29.82 in 10.0 mi West 12.7 mph 25.3 mph N/A   Clear
1:12 PM 51.8 °F - 32.0 °F 47% 29.82 in 10.0 mi West 12.7 mph 19.6 mph N/A   Clear
1:32 PM 51.8 °F - 30.2 °F 44% 29.81 in 10.0 mi WNW 17.3 mph 24.2 mph N/A   Clear
1:53 PM 53.6 °F - 32.0 °F 44% 29.80 in 10.0 mi West 13.8 mph 24.2 mph N/A   Clear
2:12 PM 53.6 °F - 32.0 °F 44% 29.80 in 10.0 mi WNW 9.2 mph 18.4 mph N/A   Clear
2:33 PM 53.6 °F - 30.2 °F 41% 29.80 in 10.0 mi NW 13.8 mph 24.2 mph N/A   Clear
2:53 PM 53.6 °F - 30.2 °F 41% 29.80 in 10.0 mi West 15.0 mph 23.0 mph N/A   Clear
3:12 PM 53.6 °F - 30.2 °F 41% 29.80 in 10.0 mi West 11.5 mph 18.4 mph N/A   Clear
3:33 PM 53.6 °F - 30.2 °F 41% 29.80 in 10.0 mi West 11.5 mph 18.4 mph N/A   Clear
3:53 PM 53.6 °F - 28.4 °F 38% 29.79 in 10.0 mi WNW 11.5 mph 23.0 mph N/A   Clear
4:12 PM 53.6 °F - 30.2 °F 41% 29.79 in 10.0 mi WNW 9.2 mph 17.3 mph N/A   Clear
4:33 PM 53.6 °F - 28.4 °F 38% 29.79 in 10.0 mi WNW 9.2 mph 17.3 mph N/A   Clear
5:12 PM 51.8 °F - 30.2 °F 44% 29.80 in 10.0 mi WNW 9.2 mph 19.6 mph N/A   Clear
5:33 PM 51.8 °F - 30.2 °F 44% 29.80 in 10.0 mi West 9.2 mph 18.4 mph N/A   Clear
5:53 PM 51.8 °F - 30.2 °F 44% 29.80 in 10.0 mi WNW 6.9 mph 16.1 mph N/A   Clear
6:12 PM 51.8 °F - 30.2 °F 44% 29.81 in 10.0 mi WNW 9.2 mph - N/A   Clear
6:33 PM 50.0 °F - 30.2 °F 47% 29.81 in 10.0 mi West 6.9 mph - N/A   Clear
6:52 PM 48.2 °F - 30.2 °F 50% 29.81 in 10.0 mi West 4.6 mph - N/A   Clear
7:13 PM 48.2 °F - 32.0 °F 54% 29.81 in 10.0 mi West 4.6 mph - N/A   Clear
7:33 PM 48.2 °F - 32.0 °F 54% 29.82 in 10.0 mi West 3.5 mph - N/A   Scattered Clouds
7:52 PM 48.2 °F - 33.8 °F 58% 29.81 in 10.0 mi West 3.5 mph - N/A   Scattered Clouds
8:13 PM 46.4 °F 45.2 °F 33.8 °F 62% 29.81 in 10.0 mi West 3.5 mph - N/A   Scattered Clouds
8:33 PM 46.4 °F 44.3 °F 33.8 °F 62% 29.81 in 10.0 mi West 4.6 mph - N/A   Scattered Clouds
8:52 PM 46.4 °F 45.2 °F 33.8 °F 62% 29.82 in 10.0 mi West 3.5 mph - N/A   Scattered Clouds
9:12 PM 46.4 °F - 33.8 °F 62% 29.83 in 10.0 mi Calm Calm - N/A   Scattered Clouds
9:33 PM 44.6 °F - 33.8 °F 66% 29.83 in 10.0 mi Calm Calm - N/A   Scattered Clouds
9:52 PM 44.6 °F 43.1 °F 33.8 °F 66% 29.83 in 10.0 mi West 3.5 mph - N/A   Scattered Clouds
10:13 PM 44.6 °F - 33.8 °F 66% 29.83 in 10.0 mi Calm Calm - N/A   Scattered Clouds
10:32 PM 44.6 °F 43.1 °F 33.8 °F 66% 29.83 in 10.0 mi West 3.5 mph - N/A   Scattered Clouds
10:52 PM 42.8 °F 41.1 °F 33.8 °F 70% 29.83 in 10.0 mi West 3.5 mph - N/A   Clear
11:13 PM 42.8 °F 41.1 °F 33.8 °F 70% 29.82 in 10.0 mi WSW 3.5 mph - N/A   Clear
11:32 PM 42.8 °F 40.1 °F 33.8 °F 70% 29.82 in 10.0 mi WSW 4.6 mph - N/A   Clear
11:53 PM 41.0 °F 39.0 °F 33.8 °F 76% 29.81 in 10.0 mi WSW 3.5 mph - N/A   Clear